| time (UTC) | temp C | wind direction | speed KPH | gust KPH | rain 1hr cm | rain 24hr cm | rain mn cm | humidity % | barometer mb |
| 20260510180003 | 18 | 344 | 9.7 | 20.9 | 0.00 | 0.00 | 0.00 | 33 | 1024.7 |
| 20260510175000 | 18 | 62 | 4.8 | 14.5 | 0.00 | 0.00 | 0.00 | 35 | 1024.5 |
| 20260510174001 | 18 | 92 | 8.0 | 17.7 | 0.00 | 0.00 | 0.00 | 33 | 1024.9 |
| 20260510172959 | 18 | 42 | 4.8 | 14.5 | 0.00 | 0.00 | 0.00 | 35 | 1025.1 |
| 20260510171958 | 18 | 24 | 6.4 | 16.1 | 0.00 | 0.00 | 0.00 | 36 | 1025.0 |
| 20260510170957 | 18 | 94 | 6.4 | 16.1 | 0.00 | 0.00 | 0.00 | 37 | 1025.2 |
| 20260510165954 | 17 | 102 | 14.5 | 27.4 | 0.00 | 0.00 | 0.00 | 39 | 1025.0 |
| 20260510164953 | 17 | 19 | 6.4 | 20.9 | 0.00 | 0.00 | 0.00 | 42 | 1025.1 |
| 20260510163952 | 16 | 99 | 20.9 | 20.9 | 0.00 | 0.00 | 0.00 | 42 | 1024.9 |
| 20260510162949 | 16 | 78 | 9.7 | 19.3 | 0.00 | 0.00 | 0.00 | 44 | 1024.9 |
| 20260510161948 | 15 | 109 | 3.2 | 14.5 | 0.00 | 0.00 | 0.00 | 48 | 1024.9 |
| 20260510160947 | 14 | 101 | 8.0 | 20.9 | 0.00 | 0.00 | 0.00 | 48 | 1025.1 |
| 20260510155942 | 13 | 108 | 11.3 | 19.3 | 0.00 | 0.00 | 0.00 | 50 | 1024.6 |
| 20260510154942 | 13 | 67 | 14.5 | 19.3 | 0.00 | 0.00 | 0.00 | 50 | 1024.8 |
| 20260510153937 | 13 | 55 | 16.1 | 17.7 | 0.00 | 0.00 | 0.00 | 52 | 1024.9 |
| 20260510152937 | 13 | 65 | 3.2 | 14.5 | 0.00 | 0.00 | 0.00 | 51 | 1024.8 |
| 20260510151937 | 14 | 78 | 12.9 | 22.5 | 0.00 | 0.00 | 0.00 | 49 | 1024.4 |
| 20260510150936 | 14 | 82 | 4.8 | 14.5 | 0.00 | 0.00 | 0.00 | 51 | 1024.2 |
| 20260510145933 | 13 | 58 | 8.0 | 14.5 | 0.00 | 0.00 | 0.00 | 52 | 1024.5 |
| 20260510144932 | 13 | 81 | 3.2 | 9.7 | 0.00 | 0.00 | 0.00 | 54 | 1025.1 |
| 20260510143931 | 13 | 149 | 1.6 | 8.0 | 0.00 | 0.00 | 0.00 | 55 | 1025.1 |
| 20260510142930 | 13 | 67 | 3.2 | 11.3 | 0.00 | 0.00 | 0.00 | 56 | 1025.2 |
| 20260510141929 | 13 | 87 | 6.4 | 14.5 | 0.00 | 0.00 | 0.00 | 54 | 1025.1 |
| 20260510140923 | 13 | 100 | 4.8 | 14.5 | 0.00 | 0.00 | 0.00 | 55 | 1024.8 |
| 20260510135918 | 12 | 109 | 8.0 | 12.9 | 0.00 | 0.00 | 0.00 | 56 | 1024.7 |
| 20260510134918 | 12 | 14 | 4.8 | 12.9 | 0.00 | 0.00 | 0.00 | 58 | 1024.4 |
| 20260510133916 | 12 | 80 | 9.7 | 14.5 | 0.00 | 0.00 | 0.00 | 59 | 1023.9 |
| 20260510132914 | 12 | 86 | 8.0 | 17.7 | 0.00 | 0.00 | 0.00 | 61 | 1023.9 |
| 20260510131909 | 12 | 85 | 8.0 | 8.0 | 0.00 | 0.00 | 0.00 | 60 | 1024.0 |
| 20260510130908 | 12 | 67 | 4.8 | 11.3 | 0.00 | 0.00 | 0.00 | 61 | 1023.7 |
| 20260510125908 | 12 | 82 | 11.3 | 16.1 | 0.00 | 0.00 | 0.00 | 62 | 1023.6 |
| 20260510124907 | 12 | 89 | 0.0 | 16.1 | 0.00 | 0.00 | 0.00 | 63 | 1022.8 |
| 20260510123906 | 12 | 13 | 4.8 | 12.9 | 0.00 | 0.00 | 0.00 | 65 | 1022.4 |
| 20260510122904 | 12 | 49 | 6.4 | 16.1 | 0.00 | 0.00 | 0.00 | 67 | 1022.2 |
| 20260510121901 | 12 | 62 | 9.7 | 12.9 | 0.00 | 0.00 | 0.00 | 70 | 1021.8 |
| 20260510120856 | 12 | 23 | 8.0 | 32.2 | 0.00 | 0.00 | 0.00 | 71 | 1021.5 |
| 20260510115854 | 12 | 30 | 14.5 | 20.9 | 0.00 | 0.00 | 0.00 | 73 | 1021.2 |
| 20260510114853 | 12 | 351 | 8.0 | 25.7 | 0.00 | 0.00 | 0.00 | 74 | 1021.1 |
| 20260510113851 | 12 | 8 | 9.7 | 24.1 | 0.00 | 0.00 | 0.00 | 75 | 1020.6 |
| 20260510112850 | 12 | 54 | 1.6 | 16.1 | 0.00 | 0.00 | 0.00 | 76 | 1020.0 |
| 20260510111848 | 13 | 0 | 4.8 | 16.1 | 0.00 | 0.00 | 0.00 | 66 | 1020.0 |
| 20260510110845 | 13 | 13 | 4.8 | 16.1 | 0.00 | 0.00 | 0.00 | 65 | 1019.5 |
| 20260510105845 | 13 | 69 | 12.9 | 14.5 | 0.00 | 0.00 | 0.00 | 66 | 1019.2 |
| 20260510104841 | 13 | 69 | 12.9 | 25.7 | 0.00 | 0.00 | 0.00 | 65 | 1019.4 |
| 20260510103840 | 13 | 99 | 8.0 | 20.9 | 0.00 | 0.00 | 0.00 | 66 | 1019.4 |
| 20260510102838 | 13 | 15 | 17.7 | 20.9 | 0.00 | 0.00 | 0.00 | 68 | 1019.6 |
| 20260510101838 | 13 | 1 | 6.4 | 17.7 | 0.00 | 0.00 | 0.00 | 69 | 1019.3 |
| 20260510100838 | 13 | 23 | 9.7 | 27.4 | 0.00 | 0.00 | 0.00 | 70 | 1019.3 |
| 20260510095838 | 13 | 2 | 19.3 | 20.9 | 0.00 | 0.00 | 0.00 | 71 | 1019.1 |
| 20260510094832 | 13 | 16 | 8.0 | 35.4 | 0.00 | 0.00 | 0.00 | 71 | 1019.1 |
| 20260510093830 | 13 | 12 | 9.7 | 22.5 | 0.00 | 0.00 | 0.00 | 71 | 1018.8 |
| 20260510092828 | 13 | 4 | 6.4 | 20.9 | 0.00 | 0.00 | 0.00 | 72 | 1019.1 |
| 20260510091826 | 13 | 359 | 9.7 | 22.5 | 0.00 | 0.00 | 0.00 | 72 | 1019.1 |
| 20260510090825 | 13 | 24 | 6.4 | 19.3 | 0.00 | 0.00 | 0.00 | 71 | 1018.9 |
| 20260510085824 | 13 | 5 | 3.2 | 20.9 | 0.00 | 0.00 | 0.00 | 72 | 1018.9 |
| 20260510084820 | 13 | 4 | 8.0 | 16.1 | 0.00 | 0.00 | 0.00 | 72 | 1018.3 |
| 20260510083820 | 13 | 35 | 8.0 | 17.7 | 0.00 | 0.00 | 0.00 | 70 | 1018.3 |
| 20260510082818 | 13 | 16 | 6.4 | 14.5 | 0.00 | 0.00 | 0.00 | 71 | 1018.1 |
| 20260510081814 | 13 | 6 | 8.0 | 14.5 | 0.00 | 0.00 | 0.00 | 71 | 1017.9 |
| 20260510080812 | 13 | 9 | 8.0 | 17.7 | 0.00 | 0.00 | 0.00 | 70 | 1018.2 |
| 20260510075810 | 13 | 343 | 4.8 | 19.3 | 0.00 | 0.00 | 0.00 | 70 | 1018.1 |
| 20260510074810 | 14 | 1 | 4.8 | 16.1 | 0.00 | 0.00 | 0.00 | 68 | 1018.1 |
| 20260510073809 | 15 | 25 | 8.0 | 17.7 | 0.00 | 0.00 | 0.00 | 67 | 1017.8 |
| 20260510072807 | 15 | 8 | 9.7 | 12.9 | 0.00 | 0.00 | 0.00 | 67 | 1017.8 |
| 20260510071806 | 15 | 4 | 8.0 | 14.5 | 0.00 | 0.00 | 0.00 | 68 | 1017.8 |
| 20260510070802 | 15 | 6 | 6.4 | 12.9 | 0.00 | 0.00 | 0.00 | 67 | 1017.8 |
| 20260510065758 | 16 | 25 | 6.4 | 12.9 | 0.00 | 0.00 | 0.00 | 63 | 1017.5 |
| 20260510064758 | 16 | 11 | 8.0 | 11.3 | 0.00 | 0.00 | 0.00 | 64 | 1017.0 |
| 20260510063757 | 15 | 337 | 3.2 | 9.7 | 0.00 | 0.00 | 0.00 | 65 | 1016.9 |
| 20260510062756 | 15 | 7 | 4.8 | 12.9 | 0.00 | 0.00 | 0.00 | 65 | 1016.9 |
| 20260510061753 | 16 | 350 | 0.0 | 11.3 | 0.00 | 0.00 | 0.00 | 64 | 1016.8 |
| 20260510060752 | 16 | 40 | 6.4 | 11.3 | 0.00 | 0.00 | 0.00 | 62 | 1016.6 |
| 20260510055752 | 16 | 348 | 3.2 | 9.7 | 0.00 | 0.00 | 0.00 | 61 | 1016.4 |
| 20260510054749 | 17 | 47 | 9.7 | 19.3 | 0.00 | 0.00 | 0.00 | 59 | 1016.1 |
| 20260510053745 | 17 | 47 | 3.2 | 19.3 | 0.00 | 0.00 | 0.00 | 58 | 1016.0 |
| 20260510052743 | 17 | 80 | 6.4 | 17.7 | 0.00 | 0.00 | 0.00 | 58 | 1016.3 |
| 20260510051742 | 17 | 97 | 8.0 | 12.9 | 0.00 | 0.00 | 0.00 | 60 | 1016.3 |
| 20260510050741 | 17 | 59 | 3.2 | 11.3 | 0.00 | 0.00 | 0.00 | 59 | 1015.8 |
| 20260510045741 | 17 | 75 | 8.0 | 12.9 | 0.00 | 0.00 | 0.00 | 59 | 1015.5 |
| 20260510044740 | 18 | 81 | 0.0 | 14.5 | 0.00 | 0.00 | 0.00 | 57 | 1015.5 |
| 20260510043739 | 18 | 91 | 11.3 | 14.5 | 0.00 | 0.00 | 0.00 | 57 | 1015.6 |
| 20260510042734 | 18 | 86 | 6.4 | 9.7 | 0.00 | 0.00 | 0.00 | 57 | 1015.4 |
| 20260510041732 | 18 | 73 | 6.4 | 8.0 | 0.00 | 0.00 | 0.00 | 58 | 1015.5 |
| 20260510040733 | 18 | 52 | 3.2 | 14.5 | 0.00 | 0.00 | 0.00 | 59 | 1015.2 |
| 20260510035730 | 18 | 96 | 3.2 | 12.9 | 0.00 | 0.00 | 0.00 | 60 | 1015.1 |
| 20260510034728 | 17 | 51 | 4.8 | 8.0 | 0.00 | 0.00 | 0.00 | 62 | 1015.0 |
| 20260510033728 | 18 | 8 | 1.6 | 8.0 | 0.00 | 0.00 | 0.00 | 62 | 1015.0 |
| 20260510032728 | 18 | 87 | 8.0 | 11.3 | 0.00 | 0.00 | 0.00 | 61 | 1014.8 |
| 20260510031725 | 18 | 114 | 4.8 | 9.7 | 0.00 | 0.00 | 0.00 | 62 | 1014.7 |
| 20260510030720 | 18 | 42 | 0.0 | 6.4 | 0.00 | 0.00 | 0.00 | 62 | 1014.7 |
| 20260510025716 | 18 | 43 | 6.4 | 9.7 | 0.00 | 0.00 | 0.00 | 60 | 1014.5 |
| 20260510024716 | 18 | 26 | 0.0 | 4.8 | 0.00 | 0.00 | 0.00 | 61 | 1013.8 |
| 20260510023714 | 18 | 80 | 4.8 | 6.4 | 0.00 | 0.00 | 0.00 | 61 | 1013.8 |
| 20260510022713 | 18 | 69 | 6.4 | 9.7 | 0.00 | 0.00 | 0.00 | 61 | 1013.1 |
| 20260510021709 | 18 | 103 | 3.2 | 8.0 | 0.00 | 0.00 | 0.00 | 61 | 1013.0 |
| 20260510020707 | 19 | 79 | 1.6 | 12.9 | 0.00 | 0.00 | 0.00 | 59 | 1012.6 |
| 20260510015704 | 20 | 27 | 4.8 | 12.9 | 0.00 | 0.00 | 0.00 | 57 | 1012.2 |
| 20260510014701 | 20 | 65 | 17.7 | 17.7 | 0.00 | 0.00 | 0.00 | 56 | 1012.2 |
| 20260510013659 | 20 | 109 | 4.8 | 17.7 | 0.00 | 0.00 | 0.00 | 56 | 1012.2 |
| 20260510012655 | 20 | 345 | 14.5 | 22.5 | 0.00 | 0.00 | 0.00 | 57 | 1013.7 |
| 20260510011652 | 21 | 70 | 4.8 | 27.4 | 0.00 | 0.00 | 0.00 | 55 | 1013.8 |
| 20260510010650 | 22 | 335 | 8.0 | 35.4 | 0.00 | 0.00 | 0.00 | 49 | 1014.2 |
| 20260510005649 | 23 | 330 | 8.0 | 14.5 | 0.00 | 0.00 | 0.00 | 45 | 1013.8 |
| 20260510004644 | 23 | 350 | 12.9 | 12.9 | 0.00 | 0.00 | 0.00 | 38 | 1012.8 |
| 20260510003639 | 24 | 25 | 9.7 | 16.1 | 0.00 | 0.00 | 0.00 | 36 | 1012.0 |
| 20260510002635 | 24 | 64 | 4.8 | 12.9 | 0.00 | 0.00 | 0.00 | 35 | 1010.9 |
| 20260510001634 | 25 | 116 | 3.2 | 11.3 | 0.00 | 0.00 | 0.00 | 36 | 1010.3 |
| 20260510000633 | 25 | 73 | 1.6 | 11.3 | 0.00 | 0.00 | 0.00 | 35 | 1010.2 |
| 20260509235632 | 25 | 82 | 3.2 | 14.5 | 0.00 | 0.00 | 0.00 | 35 | 1009.8 |
| 20260509234631 | 26 | 84 | 4.8 | 16.1 | 0.00 | 0.00 | 0.00 | 34 | 1009.8 |
| 20260509233626 | 27 | 50 | 3.2 | 4.8 | 0.00 | 0.00 | 0.00 | 29 | 1010.0 |
| 20260509232625 | 27 | 15 | 1.6 | 4.8 | 0.00 | 0.00 | 0.00 | 30 | 1010.3 |
| 20260509231625 | 27 | 140 | 3.2 | 4.8 | 0.00 | 0.00 | 0.00 | 24 | 1010.0 |
| 20260509230625 | 27 | 254 | 8.0 | 14.5 | 0.00 | 0.00 | 0.00 | 24 | 1010.2 |
| 20260509225623 | 28 | 286 | 9.7 | 12.9 | 0.00 | 0.00 | 0.00 | 25 | 1010.2 |
| 20260509224620 | 27 | 356 | 3.2 | 14.5 | 0.00 | 0.00 | 0.00 | 26 | 1010.6 |
| 20260509223620 | 27 | 186 | 0.0 | 4.8 | 0.00 | 0.00 | 0.00 | 27 | 1010.5 |
| 20260509222620 | 28 | 142 | 1.6 | 9.7 | 0.00 | 0.00 | 0.00 | 25 | 1010.2 |
| 20260509221618 | 28 | 203 | 3.2 | 8.0 | 0.00 | 0.00 | 0.00 | 25 | 1010.3 |
| 20260509220616 | 28 | 164 | 3.2 | 6.4 | 0.00 | 0.00 | 0.00 | 26 | 1010.0 |
| 20260509215614 | 28 | 181 | 3.2 | 6.4 | 0.00 | 0.00 | 0.00 | 25 | 1010.0 |
| 20260509214614 | 28 | 121 | 3.2 | 8.0 | 0.00 | 0.00 | 0.00 | 25 | 1010.0 |
| 20260509213613 | 30 | 169 | 4.8 | 11.3 | 0.00 | 0.00 | 0.00 | 24 | 1010.1 |
| 20260509212613 | 30 | 51 | 6.4 | 8.0 | 0.00 | 0.00 | 0.00 | 23 | 1010.1 |
| 20260509211611 | 28 | 69 | 1.6 | 4.8 | 0.00 | 0.00 | 0.00 | 25 | 1010.2 |
| 20260509210610 | 28 | 347 | 1.6 | 6.4 | 0.00 | 0.00 | 0.00 | 23 | 1010.3 |
| 20260509205608 | 29 | 125 | 3.2 | 11.3 | 0.00 | 0.00 | 0.00 | 23 | 1010.5 |
| 20260509204605 | 30 | 3 | 11.3 | 12.9 | 0.00 | 0.00 | 0.00 | 22 | 1010.5 |
| 20260509203604 | 30 | 263 | 8.0 | 9.7 | 0.00 | 0.00 | 0.00 | 22 | 1010.7 |
| 20260509202602 | 30 | 254 | 11.3 | 19.3 | 0.00 | 0.00 | 0.00 | 21 | 1010.7 |
| 20260509201558 | 30 | 58 | 3.2 | 11.3 | 0.00 | 0.00 | 0.00 | 21 | 1010.8 |
| 20260509200556 | 30 | 209 | 6.4 | 17.7 | 0.00 | 0.00 | 0.00 | 22 | 1011.1 |
| 20260509195554 | 30 | 229 | 14.5 | 16.1 | 0.00 | 0.00 | 0.00 | 22 | 1010.9 |
| 20260509194549 | 29 | 174 | 4.8 | 22.5 | 0.00 | 0.00 | 0.00 | 23 | 1011.0 |
| 20260509193548 | 29 | 197 | 3.2 | 12.9 | 0.00 | 0.00 | 0.00 | 24 | 1011.2 |
| 20260509192547 | 29 | 220 | 6.4 | 14.5 | 0.00 | 0.00 | 0.00 | 24 | 1011.4 |
| 20260509191542 | 29 | 251 | 11.3 | 19.3 | 0.00 | 0.00 | 0.00 | 26 | 1011.2 |
| 20260509190541 | 29 | 305 | 6.4 | 14.5 | 0.00 | 0.00 | 0.00 | 27 | 1011.4 |
| 20260509185537 | 29 | 218 | 9.7 | 14.5 | 0.00 | 0.00 | 0.00 | 25 | 1011.7 |
| 20260509184531 | 28 | 235 | 3.2 | 14.5 | 0.00 | 0.00 | 0.00 | 26 | 1011.4 |
| 20260509183528 | 29 | 230 | 9.7 | 24.1 | 0.00 | 0.00 | 0.00 | 24 | 1011.8 |
| 20260509182527 | 28 | 232 | 11.3 | 27.4 | 0.00 | 0.00 | 0.00 | 26 | 1012.0 |
| 20260509181522 | 28 | 239 | 22.5 | 30.6 | 0.00 | 0.00 | 0.00 | 25 | 1011.9 |